Location: Zilina
(49.2167°N, 18.7333°E)
Time: 16:51:04
(UTC+02:00)

ISS - Visible Passes

Search period start: 25 September 2022 00:00
Search period end: 05 October 2022 00:00
Orbit: 414 x 417 km, 51.6° (Epoch: 25 September)

Date Brightness Start Highest point End Pass type
(mag) Time Alt. Az. Time Alt. Az. Time Alt. Az.
25 Sep -3.6 20:34:58 10° WNW 20:38:19 65° NNE 20:38:21 65° NNE visible
26 Sep -3.4 19:46:17 10° WNW 19:49:36 57° N 19:51:30 23° E visible
26 Sep -1.3 21:23:04 10° WNW 21:24:22 21° W 21:24:22 21° W visible
27 Sep -3.3 18:57:33 10° WNW 19:00:52 54° N 19:04:11 10° E visible
27 Sep -3.7 20:34:23 10° WNW 20:37:32 75° W 20:37:32 75° W visible
28 Sep -3.8 19:45:41 10° WNW 19:49:04 77° NNE 19:50:42 28° E visible
28 Sep -0.9 21:22:37 10° W 21:23:35 16° W 21:23:35 16° W visible
29 Sep -3.5 18:56:59 10° WNW 19:00:19 63° N 19:03:40 10° E visible
29 Sep -2.9 20:33:47 10° WNW 20:36:46 42° SW 20:36:46 42° SW visible
30 Sep -3.5 19:45:01 10° WNW 19:48:21 63° SSW 19:50:00 26° SE visible
30 Sep -0.5 21:22:44 10° WSW 21:22:53 10° WSW 21:22:53 10° WSW visible
01 Oct -3.7 18:56:16 10° WNW 18:59:38 86° SSW 19:03:00 10° ESE visible
01 Oct -1.8 20:33:24 10° W 20:36:02 21° SW 20:36:10 21° SW visible
02 Oct -2.3 19:44:24 10° W 19:47:25 31° SW 19:49:30 16° SSE visible
03 Oct -2.9 18:55:30 10° WNW 18:58:46 46° SSW 19:01:59 10° SE visible
04 Oct -1.0 19:44:14 10° W 19:46:15 15° SW 19:48:16 10° S visible
